When you browse on this site, cookies collect data to enhance your experience and personalize the content and advertising you see.
Visit our Privacy Policy to learn more. By continuing to use the site, you agree to this use of cookies and data.
  • Em Portugal
  • Lista de países
  • Para 7 dias
  • Temperatura da água
  • Mapas de satélite
  • Mapa do tempo
  • Widgets de tempo
  • user-avatar
    Iniciar Sessão

    Previsão horária em Kitino

    Hoje, 21 Abril, Domingo

    Tempo Temperatura Precipitação Vento Pressão Humidade
    00:00 +3°C° 0.1 mm 3 m/s 758 mmHg 72%
    01:00 +3°C° 0.1 mm 3 m/s 758 mmHg 74%
    02:00 +3°C° 0 mm 2 m/s 758 mmHg 82%
    03:00 +2°C° 0 mm 2 m/s 758 mmHg 82%
    04:00 +1°C° 0 mm 3 m/s 758 mmHg 82%
    05:00 +1°C° 0 mm 3 m/s 758 mmHg 82%
    06:00 +2°C° 0 mm 3 m/s 758 mmHg 76%
    07:00 +4°C° 0 mm 3 m/s 758 mmHg 71%
    08:00 +5°C° 0 mm 3 m/s 759 mmHg 63%
    09:00 +8°C° 0 mm 3 m/s 759 mmHg 57%
    10:00 +9°C° 0 mm 3 m/s 759 mmHg 51%
    11:00 +11°C° 0 mm 3 m/s 759 mmHg 44%
    12:00 +12°C° 0 mm 3 m/s 759 mmHg 42%
    13:00 +13°C° 0 mm 3 m/s 759 mmHg 39%
    14:00 +13°C° 0 mm 3 m/s 759 mmHg 36%
    15:00 +14°C° 0 mm 2 m/s 758 mmHg 37%
    16:00 +14°C° 0 mm 2 m/s 758 mmHg 37%
    17:00 +14°C° 0 mm 2 m/s 758 mmHg 38%
    18:00 +13°C° 0 mm 2 m/s 758 mmHg 45%
    19:00 +10°C° 0 mm 2 m/s 758 mmHg 52%
    20:00 +8°C° 0 mm 2 m/s 758 mmHg 59%
    21:00 +7°C° 0 mm 2 m/s 759 mmHg 61%
    22:00 +7°C° 0 mm 2 m/s 759 mmHg 64%
    23:00 +6°C° 0 mm 2 m/s 759 mmHg 66%

    Amanhã, 22 Abril, Segunda-feira

    Tempo Temperatura Precipitação Vento Pressão Humidade
    00:00 +6°C° 0 mm 2 m/s 759 mmHg 68%
    01:00 +7°C° 0 mm 1 m/s 759 mmHg 69%
    02:00 +6°C° 0 mm 1 m/s 759 mmHg 70%
    03:00 +6°C° 0 mm 1 m/s 759 mmHg 72%
    04:00 +6°C° 0 mm 1 m/s 760 mmHg 75%
    05:00 +6°C° 0 mm 1 m/s 760 mmHg 77%
    06:00 +8°C° 0 mm 1 m/s 760 mmHg 71%
    07:00 +10°C° 0 mm 1 m/s 760 mmHg 65%
    08:00 +12°C° 0 mm 1 m/s 760 mmHg 59%
    09:00 +13°C° 0 mm 2 m/s 760 mmHg 52%
    10:00 +15°C° 0 mm 2 m/s 761 mmHg 45%
    11:00 +17°C° 0 mm 2 m/s 761 mmHg 38%
    12:00 +18°C° 0 mm 2 m/s 761 mmHg 36%
    13:00 +18°C° 0 mm 2 m/s 760 mmHg 34%
    14:00 +18°C° 0 mm 2 m/s 760 mmHg 32%
    15:00 +18°C° 0 mm 2 m/s 760 mmHg 33%
    16:00 +18°C° 0 mm 2 m/s 760 mmHg 34%
    17:00 +18°C° 0 mm 2 m/s 760 mmHg 35%
    18:00 +16°C° 0 mm 2 m/s 760 mmHg 41%
    19:00 +14°C° 0 mm 2 m/s 760 mmHg 48%
    20:00 +12°C° 0 mm 1 m/s 760 mmHg 54%
    21:00 +12°C° 0 mm 2 m/s 761 mmHg 58%
    22:00 +10°C° 0 mm 2 m/s 761 mmHg 61%
    23:00 +9°C° 0 mm 2 m/s 761 mmHg 64%

    Depois de amanhã, 23 Abril, Terça-feira

    Tempo Temperatura Precipitação Vento Pressão Humidade
    00:00 +9°C° 0 mm 2 m/s 761 mmHg 64%
    01:00 +8°C° 0 mm 2 m/s 761 mmHg 65%
    02:00 +8°C° 0 mm 2 m/s 762 mmHg 66%
    03:00 +7°C° 0 mm 2 m/s 762 mmHg 67%
    04:00 +8°C° 0 mm 1 m/s 762 mmHg 68%
    05:00 +8°C° 0 mm 1 m/s 762 mmHg 69%
    06:00 +9°C° 0 mm 1 m/s 762 mmHg 63%
    07:00 +11°C° 0 mm 1 m/s 762 mmHg 58%
    08:00 +13°C° 0 mm 1 m/s 763 mmHg 52%
    09:00 +14°C° 0 mm 2 m/s 763 mmHg 47%
    10:00 +16°C° 0 mm 2 m/s 763 mmHg 42%
    11:00 +17°C° 0 mm 2 m/s 763 mmHg 36%
    12:00 +18°C° 0 mm 2 m/s 762 mmHg 35%
    13:00 +18°C° 0 mm 2 m/s 762 mmHg 33%
    14:00 +19°C° 0 mm 2 m/s 762 mmHg 32%
    15:00 +20°C° 0 mm 1 m/s 762 mmHg 32%
    16:00 +19°C° 0 mm 1 m/s 762 mmHg 33%
    17:00 +19°C° 0 mm 1 m/s 761 mmHg 33%
    18:00 +16°C° 0 mm 1 m/s 761 mmHg 39%
    19:00 +14°C° 0 mm 1 m/s 761 mmHg 44%
    20:00 +12°C° 0 mm 1 m/s 761 mmHg 50%
    21:00 +12°C° 0 mm 1 m/s 761 mmHg 51%
    22:00 +11°C° 0 mm 1 m/s 762 mmHg 53%
    23:00 +11°C° 0 mm 1 m/s 762 mmHg 55%

    24 Abril, Quarta-feira

    Tempo Temperatura Precipitação Vento Pressão Humidade
    00:00 +10°C° 0 mm 1 m/s 762 mmHg 58%
    01:00 +10°C° 0 mm 1 m/s 762 mmHg 60%
    02:00 +9°C° 0 mm 1 m/s 762 mmHg 63%
    03:00 +8°C° 0 mm 0 m/s 762 mmHg 64%
    04:00 +7°C° 0 mm 0 m/s 762 mmHg 65%
    05:00 +7°C° 0 mm 0 m/s 762 mmHg 66%
    06:00 +9°C° 0 mm 0 m/s 762 mmHg 60%
    07:00 +12°C° 0 mm 0 m/s 762 mmHg 53%
    08:00 +15°C° 0 mm 1 m/s 763 mmHg 47%
    09:00 +16°C° 0 mm 1 m/s 762 mmHg 42%
    10:00 +18°C° 0 mm 2 m/s 762 mmHg 38%
    11:00 +19°C° 0 mm 2 m/s 762 mmHg 33%
    12:00 +19°C° 0 mm 2 m/s 762 mmHg 32%
    13:00 +20°C° 0 mm 2 m/s 761 mmHg 32%
    14:00 +20°C° 0 mm 3 m/s 761 mmHg 31%
    15:00 +20°C° 0 mm 3 m/s 761 mmHg 32%
    16:00 +20°C° 0 mm 3 m/s 760 mmHg 33%
    17:00 +20°C° 0 mm 2 m/s 760 mmHg 34%
    18:00 +18°C° 0 mm 2 m/s 760 mmHg 40%
    19:00 +16°C° 0 mm 2 m/s 760 mmHg 46%
    20:00 +14°C° 0 mm 1 m/s 760 mmHg 53%
    21:00 +13°C° 0 mm 2 m/s 760 mmHg 56%
    22:00 +12°C° 0 mm 2 m/s 760 mmHg 59%
    23:00 +12°C° 0 mm 2 m/s 760 mmHg 62%

    25 Abril, Quinta-feira

    Tempo Temperatura Precipitação Vento Pressão Humidade
    00:00 +10°C° 0 mm 2 m/s 760 mmHg 64%
    01:00 +10°C° 0 mm 2 m/s 760 mmHg 66%
    02:00 +9°C° 0 mm 2 m/s 760 mmHg 68%
    03:00 +9°C° 0 mm 2 m/s 760 mmHg 69%
    04:00 +9°C° 0 mm 2 m/s 760 mmHg 70%
    05:00 +8°C° 0 mm 2 m/s 759 mmHg 71%
    06:00 +10°C° 0 mm 3 m/s 759 mmHg 65%
    07:00 +12°C° 0 mm 3 m/s 759 mmHg 59%
    08:00 +14°C° 0 mm 4 m/s 759 mmHg 54%
    09:00 +15°C° 0 mm 4 m/s 759 mmHg 48%
    10:00 +17°C° 0 mm 5 m/s 758 mmHg 43%
    11:00 +19°C° 0 mm 5 m/s 758 mmHg 37%
    12:00 +20°C° 0 mm 5 m/s 758 mmHg 36%
    13:00 +20°C° 0 mm 5 m/s 757 mmHg 35%
    14:00 +21°C° 0 mm 5 m/s 757 mmHg 34%
    15:00 +20°C° 0 mm 5 m/s 757 mmHg 36%
    16:00 +20°C° 0 mm 5 m/s 756 mmHg 38%
    17:00 +19°C° 0 mm 4 m/s 756 mmHg 40%
    18:00 +18°C° 0 mm 4 m/s 755 mmHg 45%
    19:00 +16°C° 0 mm 3 m/s 755 mmHg 50%
    20:00 +14°C° 0 mm 3 m/s 755 mmHg 55%
    21:00 +13°C° 0 mm 3 m/s 755 mmHg 58%
    22:00 +13°C° 0 mm 3 m/s 755 mmHg 61%
    23:00 +12°C° 0 mm 3 m/s 754 mmHg 64%

    26 Abril, Sexta-feira

    Tempo Temperatura Precipitação Vento Pressão Humidade
    00:00 +12°C° 0 mm 3 m/s 754 mmHg 66%
    01:00 +11°C° 0 mm 3 m/s 754 mmHg 68%
    02:00 +11°C° 0 mm 3 m/s 754 mmHg 71%
    03:00 +10°C° 0 mm 3 m/s 753 mmHg 72%
    04:00 +10°C° 0 mm 3 m/s 753 mmHg 74%
    05:00 +10°C° 0 mm 3 m/s 753 mmHg 76%
    06:00 +11°C° 0 mm 3 m/s 752 mmHg 71%
    07:00 +13°C° 0 mm 3 m/s 752 mmHg 66%
    08:00 +14°C° 0 mm 3 m/s 752 mmHg 61%
    09:00 +17°C° 0 mm 4 m/s 752 mmHg 56%
    10:00 +18°C° 0 mm 4 m/s 751 mmHg 51%
    11:00 +20°C° 0 mm 4 m/s 751 mmHg 46%
    12:00 +21°C° 0 mm 4 m/s 750 mmHg 45%
    13:00 +21°C° 0 mm 4 m/s 750 mmHg 43%
    14:00 +22°C° 0 mm 4 m/s 750 mmHg 42%
    15:00 +22°C° 0 mm 3 m/s 749 mmHg 43%
    16:00 +22°C° 0 mm 3 m/s 749 mmHg 43%
    17:00 +23°C° 0 mm 2 m/s 748 mmHg 44%
    18:00 +20°C° 0 mm 2 m/s 748 mmHg 51%
    19:00 +18°C° 0 mm 2 m/s 748 mmHg 58%
    20:00 +16°C° 0 mm 1 m/s 748 mmHg 65%
    21:00 +16°C° 0 mm 1 m/s 748 mmHg 69%
    22:00 +15°C° 0 mm 1 m/s 748 mmHg 72%
    23:00 +14°C° 0 mm 1 m/s 747 mmHg 76%
    Mostrar mais